Regional Weather Roundup
Issued by NWS

Home | Current Version | Previous Version | Graphics & Text | Print | Product List | Glossary On
Versions: 1 2 3 4 5 6 7 8 9 10 11 12 13 14 15 16 17 18 19 20 21 22 23 24 25 26 27 28 29 30 31 32 33 34 35 36 37 38 39 40 41 42 43 44 45 46 47 48 49 50
000
ASUS43 KLMK 292210
RWRKY
KENTUCKY REGIONAL WEATHER ROUNDUP
NATIONAL WEATHER SERVICE LOUISVILLE KY
600 PM EDT THU SEP 29 2016

NOTE "FAIR" INDICATES FEW OR NO CLOUDS BELOW 12,000 FEET
WITH NO SIGNIFICANT WEATHER AND/OR OBSTRUCTIONS TO VISIBILITY.

KYZ001>023-026-027-061>063-070>075-292300-
WESTERN AND SOUTH CENTRAL KENTUCKY

CITY           SKY/WX    TMP DP  RH WIND       PRES   REMARKS
PADUCAH        PTSUNNY   68  55  63 NW9       30.10S
HENDERSON      MOSUNNY   66  52  59 N7        30.08S
OWENSBORO      PTSUNNY  N/A N/A N/A N9        30.09R
HOPKINSVILLE   MOSUNNY   62  54  76 W6        30.09S
BOWLING GREEN  CLOUDY    62  50  64 NW6       30.09R
GLASGOW        LGT RAIN  59  52  75 W5        30.08R
$$

KYZ024-025-028>034-038-045-046-053-292300-
NORTH CENTRAL KENTUCKY

CITY           SKY/WX    TMP DP  RH WIND       PRES   REMARKS
LOUISVILLE/SDF CLOUDY    65  47  52 CALM      30.07R
LOUISVILLE/LOU MOSUNNY   65  50  58 CALM      30.07S
FORT KNOX      PTSUNNY   57  53  86 W5        30.07S
$$

KYZ035>037-039>044-047>052-055>060-089>105-292300-
NORTHEAST KENTUCKY

CITY           SKY/WX    TMP DP  RH WIND       PRES   REMARKS
LEXINGTON      CLOUDY    63  51  65 N6        30.07R
COVINGTON      PTSUNNY   64  52  64 NE7       30.07S
FRANKFORT      PTSUNNY   65  50  58 NE6       30.06R
$$

KYZ054-064>069-076>088-106>120-292300-
SOUTHEAST KENTUCKY

CITY           SKY/WX    TMP DP  RH WIND       PRES   REMARKS
JACKSON        CLOUDY    58  52  80 W3        30.07R
LONDON         CLOUDY    61  49  64 NE5       30.06R
SOMERSET       CLOUDY    59  46  63 W6        30.08S
MIDDLESBORO    CLOUDY    63  50  61 N6        30.06R
MONTICELLO     CLOUDY    60  51  72 W12       30.09R
$$





USA.gov is the U.S. government's official web portal to all federal, state and local government web resources and services.